www.pogodaiklimat.ru

Погода и климат >> Архив погоды >> Австралия >> Южная Австралия >> Локстон


ПОГОДА в Локстоне

  • Прогноз погоды в Локстоне
  • Монитор погоды в Локстоне

АРХИВ ПОГОДЫ в Локстоне

Время (UTC), дата Ветер
(напр.,м/с)
 
Видим.   Явления Облачность Т
(С)
Тd
(С)
f
(%)
Тe
(С)
Тes
(С)
Комфортность P
(гПа)
Po
(гПа)
Тmin
(С)
Tmax
(С)
R
(мм)
R24
(мм)
S
(см)
10 16.07 штиль 0 н/о н/о +11.2 +10.2 94 +10 +10 1027.1 1023.4
11 16.07 ЮЗ 2 н/о н/о +12.2 +10.2 88 +11 +11 1027.1 1023.4
13 16.07 СЗ 2 н/о н/о +12.0 +9.8 86 +11 +11 1026.9 1023.2
14 16.07 СЗ 2 н/о н/о +11.9 +9.9 88 +11 +11 1026.6 1022.9 +15.4
16 16.07 З 2 н/о н/о +10.9 +8.7 86 +10 +10 1024.8 1021.1
17 16.07 СЗ 2 н/о н/о +8.5 +7.7 95 +7 +7 1024.2 1020.5
19 16.07 З 2 н/о н/о +8.2 +7.3 94 +6 +6 1023.5 1019.8
20 16.07 З 3 н/о н/о +9.1 +7.8 92 +7 +7 1023.4 1019.7
22 16.07 З 3 н/о н/о +9.6 +8.4 92 +7 +7 1023.1 1019.4
23 16.07 З 3 30 км {морось} н/о +10.7 +9.1 90 +9 +9 1023.6 1019.9 0.8
01 17.07 З 4 н/о н/о +12.8 +8.1 73 +11 +11 1023.6 1019.9
04 17.07 З 7 н/о н/о +14.5 +5.6 55 +13 +13 1021.3 1017.6
05 17.07 З 8 н/о н/о +14.9 +4.8 51 +13 +13 1020.9 1017.2
07 17.07 З 6 н/о н/о +14.0 +6.5 61 +12 +12 1020.8 1017.1
08 17.07 З 4 н/о н/о +13.1 +6.6 65 +12 +12 1021.0 1017.3
10 17.07 З 4 н/о н/о +11.5 +7.3 75 +9 +9 1021.6 1017.9
11 17.07 З 4 н/о н/о +10.4 +7.5 82 +8 +8 1021.9 1018.2
13 17.07 СЗ 3 н/о н/о +9.5 +7.4 87 +7 +7 1022.1 1018.4
14 17.07 З 4 н/о н/о +8.9 +7.4 90 +6 +6 1021.8 1018.1 +16.0
16 17.07 З 2 н/о н/о +8.3 +7.4 94 +7 +7 1021.0 1017.3
17 17.07 З 1 н/о н/о +6.8 +6.4 97 +6 +6 1021.0 1017.3
19 17.07 СЗ 2 н/о н/о +7.8 +7.6 99 +5 +5 1020.8 1017.1
20 17.07 СЗ 3 н/о н/о +7.9 +7.5 97 +5 +5 1021.2 1017.5
22 17.07 штиль 0 н/о н/о +4.2 +4.0 99 +3 +3 1021.5 1017.8
23 17.07 СЗ 3 30 км н/о +8.2 +7.1 93 +6 +6 1022.3 1018.6
01 18.07 З 3 н/о н/о +13.2 +8.1 71 +12 +12 1021.9 1018.2
02 18.07 СЗ 4 н/о н/о +14.4 +7.0 61 +13 +13 1020.9 1017.2 +3.6
04 18.07 СЗ 6 н/о н/о +16.3 +4.9 47 +15 +15 1019.1 1015.4
05 18.07 СЗ 5 н/о н/о +16.8 +5.0 46 +16 +16 1018.8 1015.1
07 18.07 З 5 н/о н/о +16.3 +4.9 47 +15 +15 1018.8 1015.1
08 18.07 З 5 н/о н/о +13.6 +5.5 58 +12 +12 1019.3 1015.6
10 18.07 З 3 н/о н/о +11.2 +5.6 68 +9 +9 1020.2 1016.5
11 18.07 СЗ 2 н/о н/о +9.3 +5.8 79 +8 +8 1020.5 1016.8
13 18.07 СЗ 2 н/о н/о +6.7 +5.6 93 +5 +5 1021.0 1017.3
14 18.07 СЗ 2 н/о н/о +5.7 +5.0 95 +3 +3 1021.1 1017.4 +17.8
16 18.07 СЗ 3 н/о н/о +6.0 +4.8 92 +3 +3 1020.5 1016.8
17 18.07 СЗ 3 н/о н/о +6.3 +5.2 93 +3 +3 1020.8 1017.1
19 18.07 СЗ 1 н/о н/о +2.9 +2.6 98 +2 +2 1021.0 1017.3
20 18.07 СЗ 2 н/о н/о +2.4 +1.9 96 -1 -1 1021.2 1017.5
22 18.07 штиль 0 н/о н/о +2.7 +2.2 97 +1 +1 1022.1 1018.4
23 18.07 СЗ 1 30 км н/о +7.9 +5.4 84 +7 +7 1022.5 1018.8
01 19.07 СЗ 3 н/о н/о +13.3 +5.6 60 +12 +12 1023.1 1019.4
02 19.07 СЗ 3 н/о н/о +15.6 +6.5 55 +15 +15 1022.4 1018.7 +2.0
04 19.07 С 4 н/о н/о +17.6 +6.2 47 +17 +17 1020.3 1016.6
05 19.07 С 4 н/о н/о +18.0 +5.4 43 +18 +18 1019.9 1016.2
07 19.07 С 3 н/о н/о +18.3 +2.3 34 +19 +19 1019.5 1015.8
08 19.07 СВ 2 н/о н/о +13.2 +5.8 61 +13 +13 1019.5 1015.8
10 19.07 СВ 2 н/о н/о +7.7 +5.0 83 +6 +6 1020.0 1016.3
11 19.07 СВ 3 н/о н/о +8.7 +4.9 77 +7 +7 1020.1 1016.4
13 19.07 С 3 н/о н/о +9.9 +2.3 59 +8 +8 1020.2 1016.5
14 19.07 С 3 н/о н/о +9.5 +0.9 55 +8 +8 1019.8 1016.1 +19.0
16 19.07 С 3 н/о н/о +8.7 -0.2 54 +7 +7 1019.3 1015.6
17 19.07 СВ 3 н/о н/о +6.2 0.0 64 +4 +4 1018.9 1015.2
19 19.07 С 3 н/о н/о +6.9 -0.1 61 +5 +5 1017.9 1014.2
20 19.07 С 2 н/о н/о +6.6 +0.2 64 +5 +5 1017.8 1014.1
22 19.07 СВ 1 н/о н/о +5.4 +0.8 72 +6 +6 1017.9 1014.2
23 19.07 С 3 30 км ясно +10.8 +0.2 48 +10 +10 1017.7 1014.0
01 20.07 С 6 н/о н/о +15.2 +0.1 36 +14 +14 1016.6 1012.9
02 20.07 С 6 н/о н/о +17.9 -0.5 29 +17 +17 1015.5 1011.8 +2.9
04 20.07 С 8 н/о н/о +19.5 -4.3 20 +19 +19 1012.6 1008.9
05 20.07 С 8 н/о н/о +20.2 -5.0 18 +19 +19 1011.4 1007.7
07 20.07 С 7 н/о н/о +19.4 -6.0 17 +19 +19 1010.6 1006.9
08 20.07 С 5 н/о н/о +17.8 -5.4 20 +17 +17 1009.9 1006.2
10 20.07 С 5 н/о н/о +15.4 -4.2 26 +15 +15 1009.8 1006.1
11 20.07 С 5 н/о н/о +14.7 -3.8 28 +14 +14 1009.3 1005.6
13 20.07 С 6 н/о н/о +15.7 -2.3 29 +15 +15 1008.9 1005.2
14 20.07 СЗ 4 н/о н/о +14.9 -1.4 33 +14 +14 1009.9 1006.2 +20.6
16 20.07 СЗ 4 н/о н/о +14.5 -2.2 32 +14 +14 1010.4 1006.7
17 20.07 С 3 н/о н/о +13.4 -1.1 37 +13 +13 1010.7 1007.0
19 20.07 З 3 н/о н/о +11.9 +4.1 59 +11 +11 1011.3 1007.6
20 20.07 З 3 н/о н/о +12.4 +6.5 67 +11 +11 1011.8 1008.1
22 20.07 З 3 н/о н/о +10.6 +6.8 77 +9 +9 1013.5 1009.8
23 20.07 З 3 30 км 1/0
[Ac cast]
+11.9 +6.4 69 +11 +11 1014.4 1010.7
01 21.07 З 6 н/о н/о +14.6 +4.7 51 +13 +13 1015.0 1011.3
02 21.07 З 6 н/о н/о +15.7 +2.3 40 +14 +14 1014.8 1011.1 +9.8
04 21.07 З 5 н/о н/о +16.8 +3.4 41 +16 +16 1013.6 1009.9
05 21.07 З 5 н/о н/о +16.3 +2.6 40 +15 +15 1013.5 1009.8
07 21.07 З 4 н/о н/о +15.7 +2.3 40 +15 +15 1014.0 1010.3
08 21.07 З 3 н/о н/о +14.2 +3.6 49 +14 +14 1014.7 1011.0
10 21.07 штиль 0 н/о н/о +6.7 +2.9 77 +6 +6 1016.1 1012.4
11 21.07 штиль 0 н/о н/о +5.5 +3.1 85 +5 +5 1016.5 1012.8
13 21.07 штиль 0 н/о н/о +3.6 +2.1 90 +2 +2 1016.1 1012.4
14 21.07 штиль 0 н/о н/о +2.6 +0.7 87 +2 +2 1015.7 1012.0 +17.4
16 21.07 штиль 0 н/о н/о +1.9 +0.6 91 +1 +1 1015.2 1011.5
17 21.07 СЗ 2 н/о н/о +1.4 -0.3 88 -2 -2 1015.0 1011.3
19 21.07 СЗ 2 н/о н/о +1.3 +0.2 92 -2 -2 1014.9 1011.2
20 21.07 С 2 н/о н/о +5.4 +2.7 83 +3 +3 1015.0 1011.3
22 21.07 С 3 н/о н/о +7.0 +2.4 73 +4 +4 1015.3 1011.6
23 21.07 С 4 30 км н/о +9.5 +2.4 61 +7 +7 1015.2 1011.5
01 22.07 С 6 н/о н/о +16.1 +2.9 41 +15 +15 1014.3 1010.6
02 22.07 С 7 н/о н/о +18.1 +2.3 35 +17 +17 1013.3 1009.6 +1.2
04 22.07 СЗ 8 н/о н/о +19.7 -0.8 25 +19 +19 1011.4 1007.7
05 22.07 СЗ 7 н/о н/о +19.8 -2.2 23 +19 +19 1010.4 1006.7
07 22.07 СЗ 6 н/о н/о +19.6 -1.8 23 +19 +19 1010.4 1006.7
08 22.07 СЗ 4 н/о н/о +17.8 -1.8 26 +18 +18 1010.8 1007.1
10 22.07 С 5 н/о н/о +17.0 -1.4 28 +16 +16 1011.4 1007.7
11 22.07 С 5 н/о н/о +16.5 -1.6 29 +16 +16 1011.5 1007.8
13 22.07 З 3 н/о н/о +14.1 -0.7 36 +13 +13 1012.5 1008.8
14 22.07 З 3 н/о н/о +13.7 +0.1 39 +13 +13 1012.9 1009.2 +20.4
16 22.07 СЗ 4 н/о н/о +12.7 +7.6 71 +11 +11 1013.3 1009.6
17 22.07 С 3 н/о н/о +11.8 +6.8 71 +10 +10 1013.2 1009.5
19 22.07 СЗ 4 н/о н/о +11.6 +6.3 70 +9 +9 1013.8 1010.1
20 22.07 С 3 н/о н/о +10.6 +6.6 76 +9 +9 1014.1 1010.4
22 22.07 СЗ 3 н/о н/о +9.3 +6.5 83 +7 +7 1015.5 1011.8
23 22.07 С 3 30 км н/о +11.3 +6.4 72 +10 +10 1016.2 1012.5
01 23.07 СЗ 7 н/о н/о +14.9 +5.7 54 +13 +13 1016.5 1012.8
02 23.07 СЗ 8 н/о н/о +15.7 +4.9 49 +14 +14 1016.2 1012.5 +9.3
04 23.07 СЗ 9 н/о н/о +17.2 +4.0 41 +16 +16 1015.0 1011.3
05 23.07 З 8 н/о н/о +17.5 +3.8 40 +16 +16 1015.2 1011.5
07 23.07 СЗ 9 н/о н/о +17.3 +4.1 41 +16 +16 1016.2 1012.5
08 23.07 З 8 н/о н/о +16.4 +5.0 47 +15 +15 1016.2 1012.5

 

Местоположение метеостанции Локстон (Южная Австралия, Австралия): широта -34.43 долгота 140.60 высота над уровнем моря 30 м.

В архиве по умолчанию представлена погода в Локстоне за последнюю неделю. Архивные данные за месяц целиком и за предыдущие месяцы, начиная с января 2011 года, Вы можете получить, выбрав интересующий диапазон дат из раскрывающегося списка и нажав кнопку "Ввод!".


*Определитесь, кто Вы:
робот инопланетянин человек

Внимание! Время в таблицах - всемирное. Для получения местного времени необходимо прибавить поправку, которая равна 9.5 ч.

Смотрите также архив погоды в соседних городах и на ближайших метеорологических станциях:

Погода в Ренмарке (Южная Австралия, Австралия) (27 км)
Погода в Ламеру (Южная Австралия, Австралия) (106 км)
Погода в Милдьюре (Новый Южный Уэльс, Австралия) (138 км)
Погода в Мюррей Бридж (Южная Австралия, Австралия) (144 км)
Погода в Нереутпе (Южная Австралия, Австралия) (147 км)
Погода в Уолпеапе (Виктория, Австралия) (149 км)
Погода в Маунт Крофорд (Южная Австралия, Австралия) (157 км)
Погода в Розворти (Южная Австралия, Австралия) (176 км)
Погода в Стратолбине (Южная Австралия, Австралия) (182 км)
Погода в Эдинбурге (Южная Австралия, Австралия) (184 км)

Пояснения к столбцам:

Ветер - указаны скорость ветра в м/с - средняя за 10 мин, порывы в срок и между сроками (в фигурных скобках) и направление, откуда дует ветер: С - северный, СВ - северо-восточный, В - восточный, ЮВ - юго-восточный, Ю - южный, ЮЗ - юго-западный, З - западный, СЗ - северо-западный.
Видимость - горизонтальная дальность видимости в метрах или километрах. При видимости от 1 до 10 км при отсутствии осадков обычно наблюдается дымка, при ухудшении видимости до 1 км и менее - туман. В сухую погоду видимость может ухудшаться дымом, пылью или мглою.
Явления - указаны атмосферные явления, наблюдавшиеся в срок или в последний час перед сроком; фигурными скобками обозначены явления, наблюдавшиеся между сроками (за 1-3 часа до срока); квадратными скобками обозначены град или гололедные отложения с указанием их диаметра в мм.
Облачность - указаны через наклонную черту общая и нижняя облачность в баллах и высота нижней границы облаков в метрах; квадратными скобками обозначены формы облаков: Ci - перистые, Cs - перисто-слоистые, Cc - перисто-кучевые, Ac - высококучевые, As - высокослоистые, Sc - слоисто-кучевые, Ns - слоисто-дождевые, Cu - кучевые, Cb - кучево-дождевые. Подробнее классификацию облаков см. в Атласе облаков (PDF).
T - Температура воздуха - температура, измеренная на высоте 2 м над землей.
Td - Температура точки росы - температура, при понижении до которой содержащийся в воздухе водяной пар достигнет насыщения.
f - Относительная влажность воздуха - влажноcть воздуха, измеренная на высоте 2 м над землей.
Te - Эффективная температура - температура, которую ощущает одетый по сезону человек в тени. Характеристика душности погоды. При расчете учитывается влияние влажности воздуха и скорости ветра на теплоощущения человека.
Tes - Эффективная температура на солнце - температура, которую ощущает человек, с поправкой на солнечный нагрев. Характеристика знойности погоды. Зависит от высоты солнца над горизонтом, облачности и скорости ветра. Ночью, в пасмурную погоду, а также при ветре 12 м/с и более поправка равна нулю.
P - Атмосферное давление - приведенное к уровню моря атмосферное давление.
Po - Атмосферное давление - измеренное на уровне метеостанции атмосферное давление.
Tmin - Минимальная температура - минимум температуры воздуха на высоте 2 м над землей.
Tmax - Максимальная температура - максимум температуры воздуха на высоте 2 м над землей.
R - Количество осадков - Количество выпавших осадков за период времени, мм. При наведении курсора мыши на число - период времени, за который выпало указанное количество осадков.
R24 - Количество осадков - Количество выпавших осадков за 24 часа, мм.
S - Снежный покров - Высота снежного покрова, см. При наведении курсора мыши на число - состояние снежного покрова и степень покрытия местности в баллах.